sat.trackr.live / text

‹ back to catalog

STARLINK-34654

NORAD 64858 · 2025-152S

PAYLOAD ACTIVE UNKNOWN

§ Identity

Operator
Country
US
Launch date
2025-07-19
Launch site
AFWTR
Launch vehicle
Mass (kg)
RCS (m²)

Purposes: comms

External: N2YO · Heavens-Above · Gunter

§ Orbital elements

Epoch: 2026-05-25T03:04:20.218656Z

Period
95.64 min
Inclination
97.4491°
Eccentricity
0.0002353
Mean motion
15.05659415 rev/d
Perigee alt
547.9 km
Apogee alt
551.1 km
Semi-major
6,927.6 km
B*
2.7560e-4
RAAN
0.5292°
Arg perigee
84.3922°
Mean anomaly
275.7573°
Rev number
4,692

§ Raw data

STARLINK-346541 64858U 25152S   26145.12801179  .00003921  00000+0  27560-3 0  99902 64858  97.4491   0.5292 0002353  84.3922 275.7573 15.05659415 46924

JSON: /api/v1/satellites/64858 · /tle

For live sub-satellite position, see the globe view (requires WebGL).

§ Visibility from observer

Set your observer location to see the next 7 days of passes ≥ 10°. The values pass through the URL so the page stays shareable.

No JS? Fill the form by hand. The geolocation button needs JavaScript.